STARLINK-11707, 64328

Orbit data source: Space-Track

STARLINK-11707, 64328 is a payload satellite owned by SpaceX/Seattle (US) in LEO that was launched on Tue, 10 Jun 2025 UTC via an FALCON 9 launch vehicle from the Air Force Eastern Test Range (AFETR). Payload-class satellites include a variety of spacecraft equipped with specific instruments for various scientific and technological missions. These include communications satellites like Starlink; space stations such as the ISS; scientific satellites like the Hubble; Earth observation satellites from companies like Planet Labs, Umbra, and HawkEye 360; GPS; miniature CubeSats for education and research; and military/defense satellites.

Loading next visibility...
Identifier
64328, 2025-124M
Orbit
LEO
Country
Flag of USUS
Related business
Manufacturer
SpaceX/Seattle
Mission
Operational Commercial Communications
Bus & Motor
STARLINK V2MD, Unknown motor
Mass
960 kg wet, ~910 kg dry
Launch date (UTC)
2025-06-10 (9 months ago)
Launch vehicle
FALCON 9
Launch site
Air Force Eastern Test Range (AFETR)
Object type
Payload
Rocket body
Debris
Shape & HBR
Box + 2 Pan, 18.1 m
Radar Cross Section
36.964 m², Large (>1 m²)

Expand to show TLE details & history
Last TLE update: 11 hours ago

TLE from 11 hours ago
0 STARLINK-11707
1 64328U 25124M   26074.46539879  .00228086  00000-0  17279-2 0  9991
2 64328  42.9988 354.3177 0003383 285.9234  74.1261 15.70902256 43741
Epoch: 2026-03-15T11:10Z
TLE epoch observation values (Epoch: 2026-03-15T11:10:10.455Z)
Latitude
Longitude
13.7023°
Altitude
355.466 km
Speed
7.698 km/s
True Right ascension
23h 37m 16s
True Declination
0° 00' 00"
Sunlit
Object was in daylight at epoch
Visualization orbit readout
Latitude
Unknown
Longitude
Unknown
Altitude
Unknown
Speed
Unknown
Apparent Right ascension
Unknown
Apparent Declination
Unknown
Sunlit
N/A
Visualization observer readout
Local Sidereal Time
02:46:06
Azimuth
Unknown
Elevation
Unknown
Doppler factor
Unknown
Orbital elements
Apogee altitude
360.578 km
Perigee altitude
356.02 km
Semi-major axis
6,736.436 km
Eccentricity
0.00034
Inclination
42.9988°
RAAN
354.3177°
Arg. of periapsis
285.9234°
True anomaly
74.16339°
Mean anomaly
74.1261°
Eccentric anomaly
74.14475°
Mean motion
3.92553 °/min
Orbital period
91.71 mins
BSTAR
0.0017279
Loading maneuver chart data...
Computing Atmospheric mass density...
Loading historical data...
Loading historical data...
Loading historical data...
Loading historical data...
Loading historical data...
Loading historical data...
Loading historical data...

Documentation

Showing up to 5 results
|